Weather History for Hamilton Island, QU

Change the Weather History Date:

Monday, February 17, 2014

  Actual Average Record
Temperature  
Mean Temperature 78 °F -  
Max Temperature 86 °F - - ()
Min Temperature 70 °F - - ()
Cooling Degree Days 13    
Growing Degree Days 28 (Base 50)    
Moisture  
Dew Point 74 °F    
Average Humidity 83    
Maximum Humidity 89    
Minimum Humidity 66    
Precipitation  
Precipitation 0.12 in - - ()
Sea Level Pressure  
Sea Level Pressure 29.76 in    
Wind  
Wind Speed 9 mph ()    
Max Wind Speed 18 mph    
Max Gust Speed -    
Visibility 5.9 miles    
Events      
T = Trace of Precipitation, MM = Missing Value Source: Averaged Metar Reports

Daily Weather History Graph

Daily Weather History Graph

Search for Another Location

Airport:

Trip Planner

Search our weather history database for the weather conditions in past years. The results will help you decide how hot, cold, wet, or windy it might be!

Date:

Astronomy

Feb. 17, 2014 Rise Set
Actual Time 5:56 AM AEST 6:39 PM AEST
Civil Twilight 5:33 AM AEST 7:02 PM AEST
Nautical Twilight 5:06 AM AEST 7:29 PM AEST
Astronomical Twilight 4:39 AM AEST 7:56 PM AEST
Moon 7:53 PM AEST (2/17) 7:29 AM AEST (2/17)
Length of Visible Light 13h 29m
Length of Day
12h 43m
Waning Gibbous, 96% of the Moon is Illuminated
Feb 17
Waning Gibbous
Feb 23
Last Quarter
Mar 1
New
Mar 8
First Quarter
Mar 17
Full

Hourly Weather History & Observations

Time (AEST) Temp. Heat Index Dew Point Humidity Pressure Visibility Wind Dir Wind Speed Gust Speed Precip Events Conditions
12:00 AM 73 °F - 70 °F 86% 29.75 in - NNW 16.1 mph - -  
12:00 AM 73.4 °F - 69.8 °F 88% 29.74 in 6.2 mi NNW 16.1 mph - N/A   Unknown
12:30 AM 73.4 °F - 69.8 °F 88% 29.74 in 6.2 mi NNW 13.8 mph - N/A   Scattered Clouds
1:00 AM 73.4 °F - 69.8 °F 88% 29.74 in 6.2 mi NNW 13.8 mph - N/A   Unknown
1:30 AM 73.4 °F - 69.8 °F 88% 29.71 in 6.2 mi NNW 11.5 mph - N/A   Unknown
2:00 AM 73.4 °F - 69.8 °F 88% 29.71 in 6.2 mi NNE 6.9 mph - N/A   Scattered Clouds
2:30 AM 75.2 °F - 71.6 °F 89% 29.71 in 6.2 mi ENE 8.1 mph - N/A   Scattered Clouds
3:00 AM 75 °F - 71 °F 85% 29.73 in - North 6.9 mph - -  
3:00 AM 75.2 °F - 71.6 °F 89% 29.74 in 6.2 mi North 6.9 mph - N/A   Mostly Cloudy
3:30 AM 75.2 °F - 71.6 °F 89% 29.74 in 6.2 mi NNE 5.8 mph - N/A   Overcast
4:00 AM 75.2 °F - 71.6 °F 89% 29.71 in 6.2 mi ENE 10.4 mph - N/A   Overcast
4:30 AM 75.2 °F - 71.6 °F 89% 29.74 in 6.2 mi NNE 1.2 mph - N/A   Mostly Cloudy
5:00 AM 75.2 °F - 71.6 °F 89% 29.74 in 6.2 mi NNE 6.9 mph - N/A   Mostly Cloudy
5:30 AM 75.2 °F - 71.6 °F 89% 29.77 in 6.2 mi NNE 8.1 mph - N/A   Mostly Cloudy
5:50 AM 75.2 °F - 71.6 °F 89% 29.77 in 6.2 mi NNE 4.6 mph - N/A   Mostly Cloudy
6:00 AM 75 °F - 72 °F 87% 29.76 in - North 5.8 mph - -   Overcast
6:00 AM 75.2 °F - 71.6 °F 89% 29.77 in 6.2 mi North 5.8 mph - N/A   Overcast
6:30 AM 75.2 °F - 71.6 °F 89% 29.77 in 6.2 mi North 5.8 mph - N/A   Scattered Clouds
6:39 AM 75.2 °F - 71.6 °F 89% 29.77 in 6.2 mi North 5.8 mph - N/A   Scattered Clouds
7:00 AM 77.0 °F - 71.6 °F 83% 29.77 in 6.2 mi Calm Calm - N/A   Unknown
7:25 AM 77.0 °F - 73.4 °F 89% 29.77 in 6.2 mi NE 6.9 mph - N/A   Mostly Cloudy
7:30 AM 77.0 °F - 73.4 °F 89% 29.77 in 6.2 mi ENE 5.8 mph - N/A   Mostly Cloudy
8:00 AM 77.0 °F - 73.4 °F 89% 29.77 in 6.2 mi East 5.8 mph - N/A   Mostly Cloudy
8:24 AM 78.8 °F - 73.4 °F 83% 29.77 in 6.2 mi East 6.9 mph - N/A   Scattered Clouds
8:30 AM 78.8 °F - 73.4 °F 83% 29.77 in 6.2 mi ENE 6.9 mph - N/A   Scattered Clouds
9:00 AM 81 °F - 74 °F 74% 29.78 in - ENE 4.6 mph - -  
9:00 AM 80.6 °F 85.4 °F 73.4 °F 79% 29.77 in 6.2 mi ENE 4.6 mph - N/A   Scattered Clouds
9:30 AM 80.6 °F 85.4 °F 73.4 °F 79% 29.77 in 6.2 mi ESE 3.5 mph - N/A   Mostly Cloudy
10:00 AM 80.6 °F 85.4 °F 73.4 °F 79% 29.80 in 6.2 mi WSW 2.3 mph - N/A   Unknown
10:30 AM 82.4 °F 89.5 °F 75.2 °F 79% 29.80 in 6.2 mi West 3.5 mph - N/A   Scattered Clouds
11:00 AM 82.4 °F 88.2 °F 73.4 °F 74% 29.80 in 6.2 mi WSW 4.6 mph - N/A   Unknown
11:30 AM 84.2 °F 92.3 °F 75.2 °F 74% 29.77 in 6.2 mi SSE 6.9 mph - N/A   Unknown
12:00 PM 84 °F - 76 °F 72% 29.76 in - ESE 9.2 mph - -  
12:00 PM 84.2 °F 94.1 °F 77.0 °F 79% 29.77 in 6.2 mi ESE 9.2 mph - N/A   Scattered Clouds
12:15 PM 82.4 °F 88.2 °F 73.4 °F 74% 29.77 in 6.2 mi East 12.7 mph - N/A   Mostly Cloudy
12:30 PM 82.4 °F 88.2 °F 73.4 °F 74% 29.74 in 6.2 mi East 16.1 mph - N/A   Overcast
12:42 PM 82.4 °F 88.2 °F 73.4 °F 74% 29.74 in 6.2 mi East 15.0 mph - N/A   Overcast
1:00 PM 82.4 °F 88.2 °F 73.4 °F 74% 29.74 in 6.2 mi East 18.4 mph - N/A   Overcast
1:30 PM 84.2 °F 90.9 °F 73.4 °F 70% 29.74 in 6.2 mi NE 13.8 mph - N/A   Overcast
2:00 PM 86.0 °F 95.1 °F 75.2 °F 70% 29.71 in 6.2 mi NE 15.0 mph - N/A   Scattered Clouds
2:30 PM 84.2 °F 90.9 °F 73.4 °F 70% 29.71 in 6.2 mi NE 16.1 mph - N/A   Scattered Clouds
3:00 PM 83 °F - 74 °F 66% 29.72 in - NE 16.1 mph - -  
3:00 PM 82.4 °F 88.2 °F 73.4 °F 74% 29.71 in 6.2 mi NE 16.1 mph - N/A   Mostly Cloudy
3:30 PM 82.4 °F 89.5 °F 75.2 °F 79% 29.71 in 6.2 mi NE 15.0 mph - N/A   Overcast
4:00 PM 82.4 °F 88.2 °F 73.4 °F 74% 29.71 in 6.2 mi NE 16.1 mph - N/A   Overcast
4:30 PM 80.6 °F 86.2 °F 75.2 °F 84% 29.71 in 6.2 mi NE 11.5 mph - N/A   Mostly Cloudy
5:00 PM 80.6 °F 86.2 °F 75.2 °F 84% 29.71 in 6.2 mi NE 15.0 mph - N/A   Scattered Clouds
5:30 PM 80.6 °F 86.2 °F 75.2 °F 84% 29.71 in 6.2 mi NE 15.0 mph - N/A   Mostly Cloudy
5:48 PM 80.6 °F 86.2 °F 75.2 °F 84% 29.74 in 3.7 mi NE 13.8 mph - N/A   Overcast
6:00 PM 79 °F - 75 °F 84% 29.74 in 1 mi North 9.2 mph - -   Overcast
6:00 PM 78.8 °F - 75.2 °F 89% 29.74 in 1.5 mi North 9.2 mph - N/A   Overcast
6:08 PM 78.8 °F - 75.2 °F 89% 29.74 in 1.7 mi North 5.8 mph - N/A   Overcast
6:20 PM 78.8 °F - 75.2 °F 89% 29.74 in 6.2 mi NNE 5.8 mph - N/A   Overcast
6:22 PM 78.8 °F - 75.2 °F 89% 29.74 in 6.2 mi NE 5.8 mph - N/A   Overcast
6:30 PM 78.8 °F - 75.2 °F 89% 29.74 in 6.2 mi NE 6.9 mph - N/A   Overcast
7:00 PM 78.8 °F - 73.4 °F 83% 29.74 in 6.2 mi North 10.4 mph - N/A   Scattered Clouds
7:30 PM 78.8 °F - 73.4 °F 83% 29.77 in 6.2 mi NNE 9.2 mph - N/A   Unknown
8:00 PM 78.8 °F - 75.2 °F 89% 29.77 in 6.2 mi ENE 6.9 mph - N/A   Scattered Clouds
8:30 PM 78.8 °F - 75.2 °F 89% 29.77 in 6.2 mi ENE 6.9 mph - N/A   Mostly Cloudy
8:43 PM 78.8 °F - 75.2 °F 89% 29.77 in 6.2 mi ENE 6.9 mph - N/A   Mostly Cloudy
9:00 PM 80 °F - 76 °F 84% 29.79 in - ENE 6.9 mph - -   Overcast
9:00 PM 78.8 °F - 75.2 °F 89% 29.80 in 6.2 mi ENE 6.9 mph - N/A   Mostly Cloudy
9:30 PM 80.6 °F 86.2 °F 75.2 °F 84% 29.80 in 6.2 mi ENE 12.7 mph - N/A   Mostly Cloudy
9:38 PM 80.6 °F 86.2 °F 75.2 °F 84% 29.80 in 6.2 mi ENE 11.5 mph - N/A   Mostly Cloudy
9:50 PM 80.6 °F 86.2 °F 75.2 °F 84% 29.80 in 6.2 mi ENE 10.4 mph - N/A   Mostly Cloudy
10:00 PM 80.6 °F 86.2 °F 75.2 °F 84% 29.80 in 6.2 mi ENE 10.4 mph - N/A   Mostly Cloudy
10:30 PM 80.6 °F 86.2 °F 75.2 °F 84% 29.80 in 6.2 mi ENE 11.5 mph - N/A   Overcast
11:00 PM 78.8 °F - 75.2 °F 89% 29.80 in 6.2 mi ENE 10.4 mph - N/A   Mostly Cloudy
11:18 PM 78.8 °F - 75.2 °F 89% 29.80 in 6.2 mi ENE 9.2 mph - N/A   Scattered Clouds
11:22 PM 78.8 °F - 75.2 °F 89% 29.77 in 6.2 mi ENE 9.2 mph - N/A   Mostly Cloudy
11:30 PM 78.8 °F - 75.2 °F 89% 29.77 in 6.2 mi ENE 9.2 mph - N/A   Scattered Clouds